This demonstration page uses our WeatherBlox Daily Observations layout. Learn more.

Hourly Observations for August 29, 2017

Temp ( °F °C ) Dew Point ( °F °C ) Humidity (%) Winds ( mph kmh ) Pressure ( in mb ) Visibility ( mi km ) Precip ( " mm )
12:15 am 00:15 Clear 66 19 59 15 78 78 ESE 3 6 30.21 1023 10 16.09344 0 0
12:35 am 00:35 Clear 66 19 59 15 78 78 Calm 30.21 1023 10 16.09344 0 0
12:55 am 00:55 Clear 66 19 59 15 78 78 NE 3 6 30.21 1023 10 16.09344 0 0
1:15 am 01:15 Clear 66 19 59 15 78 78 NNE 5 7 30.18 1022 10 16.09344 0 0
1:35 am 01:35 Clear 66 19 59 15 78 78 NE 3 6 30.18 1022 10 16.09344 0 0
1:55 am 01:55 Clear 64 18 59 15 83 83 NE 3 6 30.18 1022 10 16.09344 0 0
2:15 am 02:15 Clear 64 18 59 15 83 83 NNE 5 7 30.18 1022 10 16.09344 0 0
2:35 am 02:35 Clear 64 18 59 15 83 83 NE 5 7 30.18 1022 10 16.09344 0 0
2:55 am 02:55 Clear 64 18 59 15 83 83 NNE 5 7 30.15 1021 10 16.09344 0 0
3:15 am 03:15 Clear 64 18 59 15 83 83 NNE 5 7 30.15 1021 10 16.09344 0 0
3:35 am 03:35 Clear 64 18 59 15 83 83 NNE 5 7 30.15 1021 10 16.09344 0 0
3:55 am 03:55 Partly Cloudy 63 17 59 15 88 88 NNE 6 9 30.15 1021 10 16.09344 0 0
4:15 am 04:15 Mostly Cloudy 63 17 59 15 88 88 NE 6 9 30.15 1021 10 16.09344 0 0
4:35 am 04:35 Mostly Cloudy with Light Rain 63 17 59 15 88 88 NNE 5 7 30.15 1021 10 16.09344 0 0
4:55 am 04:55 Mostly Cloudy with Light Rain 63 17 61 16 94 94 NNE 5 7 30.15 1021 10 16.09344 0 0
5:15 am 05:15 Cloudy with Light Rain 63 17 61 16 94 94 NNE 6 9 30.15 1021 10 16.09344 0 0
5:35 am 05:35 Cloudy with Light Rain 61 16 61 16 100 100 NNE 3 6 30.15 1021 7 11.265408 0.02 0.508
5:55 am 05:55 Cloudy with Light Rain 61 16 61 16 100 100 NNE 5 7 30.15 1021 10 16.09344 0.03 0.762
6:15 am 06:15 Cloudy with Rain 61 16 61 16 100 100 N 7 11 30.15 1021 7 11.265408 0.02 0.508
6:35 am 06:35 Cloudy with Rain 61 16 61 16 100 100 N 7 11 30.15 1021 10 16.09344 0.04 1.016
6:55 am 06:55 Cloudy with Rain 61 16 61 16 100 100 N 7 11 30.15 1021 7 11.265408 0.08 2.032
7:15 am 07:15 Cloudy with Rain 61 16 61 16 100 100 NNE 7 11 30.15 1021 7 11.265408 0.03 0.762
7:35 am 07:35 Cloudy with Light Rain 61 16 61 16 100 100 NNE 7 11 30.15 1021 7 11.265408 0.05 1.27
7:55 am 07:55 Cloudy with Light Rain 61 16 61 16 100 100 NNE 7 11 30.15 1021 7 11.265408 0.06 1.524
8:15 am 08:15 Cloudy with Rain 61 16 61 16 100 100 NNE 6 9 30.15 1021 7 11.265408 0.02 0.508
8:35 am 08:35 Cloudy with Rain 61 16 61 16 100 100 NNE 7 11 30.15 1021 7 11.265408 0.04 1.016
8:55 am 08:55 Cloudy with Light Rain 61 16 61 16 100 100 NNE 7 11 30.15 1021 5 8.04672 0.07 1.778
9:15 am 09:15 Cloudy with Light Rain 61 16 61 16 100 100 NNE 6 9 30.15 1021 7 11.265408 0.01 0.254
9:35 am 09:35 Cloudy with Rain 61 16 61 16 100 100 NNE 6 9 30.12 1020 5 8.04672 0.03 0.762
9:55 am 09:55 Cloudy with Rain 61 16 61 16 100 100 N 7 11 30.12 1020 5 8.04672 0.05 1.27
10:15 am 10:15 Cloudy with Light Rain 61 16 61 16 100 100 NNE 5 7 30.12 1020 7 11.265408 0.01 0.254
10:35 am 10:35 Cloudy with Light Rain 61 16 61 16 100 100 NNE 7 11 30.12 1020 7 11.265408 0.02 0.508
10:55 am 10:55 Cloudy with Light Rain 63 17 63 17 100 100 NNE 7 11 30.12 1020 5 8.04672 0.03 0.762
11:15 am 11:15 Cloudy with Light Rain 63 17 63 17 100 100 NNE 7 11 30.12 1020 5 8.04672 0.01 0.254
11:35 am 11:35 Cloudy with Rain 63 17 63 17 100 100 NNE 6 9 30.12 1020 3 4.828032 0.05 1.27
11:55 am 11:55 Cloudy with Rain 63 17 63 17 100 100 N 6 9 30.12 1020 4 6.437376 0.09 2.286
12:15 pm 12:15 Cloudy with Light Rain 63 17 63 17 100 100 NNE 7 11 30.09 1019 5 8.04672 0.01 0.254
12:35 pm 12:35 Cloudy with Rain 63 17 63 17 100 100 NNE 5 7 30.09 1019 5 8.04672 0.03 0.762
12:55 pm 12:55 Cloudy with Light Rain 63 17 63 17 100 100 NNE 5 7 30.09 1019 5 8.04672 0.05 1.27
1:15 pm 13:15 Cloudy with Rain 63 17 63 17 100 100 NNE 6 9 30.09 1019 4 6.437376 0.03 0.762
1:35 pm 13:35 Cloudy with Rain 63 17 63 17 100 100 NNE 6 9 30.06 1018 5 8.04672 0.06 1.524
1:55 pm 13:55 Cloudy with Light Rain 63 17 63 17 100 100 N 7 11 30.09 1019 7 11.265408 0.07 1.778
2:15 pm 14:15 Cloudy with Light Rain 63 17 63 17 100 100 NNE 7 11 30.09 1019 7 11.265408 0.01 0.254
2:35 pm 14:35 Cloudy with Rain 63 17 63 17 100 100 NNE 6 9 30.06 1018 5 8.04672 0.03 0.762
2:55 pm 14:55 Cloudy with Rain 63 17 63 17 100 100 N 13 20 30.06 1018 7 11.265408 0.06 1.524
3:15 pm 15:15 Cloudy with Light Rain 64 18 64 18 100 100 N 10 17 30.06 1018 10 16.09344 0 0
3:35 pm 15:35 Cloudy with Light Rain 64 18 64 18 100 100 N 10 17 30.03 1017 10 16.09344 0 0
3:55 pm 15:55 Cloudy with Light Rain 64 18 64 18 100 100 NNE 12 19 30.06 1018 4 6.437376 0.01 0.254
4:15 pm 16:15 Cloudy with Light Rain 64 18 64 18 100 100 NNE 8 13 30.06 1018 3 4.828032 0 0
4:35 pm 16:35 Cloudy with Light Rain 64 18 64 18 100 100 N 9 15 30.06 1018 3 4.828032 0.02 0.508
4:55 pm 16:55 Cloudy with Mist and Fog 64 18 64 18 100 100 NNE 10 17 30.06 1018 4 6.437376 0.02 0.508
5:15 pm 17:15 Cloudy 64 18 64 18 100 100 NNE 8 13 30.06 1018 10 16.09344 0 0
5:35 pm 17:35 Cloudy 64 18 64 18 100 100 NNE 9 15 30.03 1017 10 16.09344 0 0
5:55 pm 17:55 Cloudy 64 18 64 18 100 100 N 8 13 30.06 1018 10 16.09344 0 0
6:15 pm 18:15 Cloudy 64 18 64 18 100 100 N 10 17 30.06 1018 7 11.265408 0 0
6:35 pm 18:35 Cloudy 64 18 64 18 100 100 N 7 11 30.03 1017 10 16.09344 0 0
6:55 pm 18:55 Cloudy with Mist and Fog 64 18 64 18 100 100 NNE 12 19 30.03 1017 5 8.04672 0 0
7:15 pm 19:15 Cloudy with Mist and Fog 64 18 64 18 100 100 NNE 9 15 30.03 1017 4 6.437376 0 0
7:35 pm 19:35 Cloudy 64 18 64 18 100 100 NNE 9 15 30.03 1017 7 11.265408 0 0
7:55 pm 19:55 Cloudy with Light Rain 63 17 63 17 100 100 NNE 8 13 30.03 1017 5 8.04672 0 0
8:15 pm 20:15 Cloudy with Light Drizzle 63 17 63 17 100 100 NNE 7 11 30.03 1017 5 8.04672 0 0
8:35 pm 20:35 Cloudy 63 17 63 17 100 100 NNE 8 13 30.03 1017 10 16.09344 0 0
8:55 pm 20:55 Cloudy 63 17 63 17 100 100 NNE 7 11 30.03 1017 10 16.09344 0 0
9:15 pm 21:15 Cloudy with Light Rain 63 17 63 17 100 100 NNE 7 11 30.06 1018 5 8.04672 0 0
9:35 pm 21:35 Cloudy with Mist and Fog 63 17 63 17 100 100 NNE 7 11 30.06 1018 5 8.04672 0 0
9:55 pm 21:55 Cloudy with Light Drizzle 63 17 63 17 100 100 NNE 9 15 30.06 1018 5 8.04672 0.01 0.254
10:15 pm 22:15 Cloudy with Light Rain 63 17 63 17 100 100 NNE 7 11 30.06 1018 4 6.437376 0 0
10:35 pm 22:35 Cloudy with Light Drizzle 63 17 63 17 100 100 NNE 6 9 30.06 1018 3 4.828032 0 0
10:55 pm 22:55 Cloudy with Mist and Fog 63 17 63 17 100 100 NNE 7 11 30.06 1018 3 4.828032 0 0
11:15 pm 23:15 Cloudy with Mist and Fog 63 17 63 17 100 100 NNE 8 13 30.06 1018 4 6.437376 0 0
11:35 pm 23:35 Cloudy with Mist and Fog 63 17 63 17 100 100 NNE 7 11 30.06 1018 5 8.04672 0 0
11:55 pm 23:55 Cloudy with Mist and Fog 63 17 63 17 100 100 NNE 9 15 30.06 1018 5 8.04672 0 0

Powered by AerisWeather